Flag for Ecuador Weather past 2 weeks in Guayaquil, Ecuador

Now
73 °F

Partly cloudy.


Feels Like: 73 °F
Forecast: 71 / 86 °F
Wind: 10 mph from Southwest

Location: Guayaquil / Simon Bolivar

Current Time: Aug 28, 2015 at 4:40:54 AM

Latest Report: Aug 28, 2015 at 4:00 AM


Visibility: N/A

Pressure: 29.83 "Hg

Humidity: 83%

Dew point: 68 °F

Location of GuayaquilLocation

Historic Weather in Guayaquil — Graph

°F

Guayaquil temperature yesterday

Maximum temperature yesterday: 82 °F (at 10:00 AM)
Minimum temperature yesterday: 36 °F (at 4:00 AM)
Average temperature yesterday: 75 °F

Past Weeks' High & Low Weather Summary

 TemperatureHumidityPressure
High90 °F (Aug 13, 3:00 PM)100% (Aug 27, 4:00 AM)29.95 "Hg (Aug 27, 4:00 AM)
Low36 °F (Aug 27, 4:00 AM)52% (Aug 25, 3:00 PM)29.74 "Hg (Aug 18, 4:00 PM)
Average77 °F74%29.85 "Hg
* Reported Aug 13 3:00 AM — Aug 28 3:00 AM, Guayaquil, Weather by CustomWeather, © 2015

Note: Actual official high and low records may vary slightly from our data, if they occured in-between our weather recording intervals... More about our weather records

Advertising

Guayaquil weather history for previous 24 hours

 ConditionsComfort  
Time TempWeatherWind HumidityBarometerVisibility
3:00 AM
Fri, Aug 28
73 °FPartly cloudy.9 mph83%29.83 "HgN/A
2:00 AM73 °FPassing clouds.10 mph83%29.83 "HgN/A
11:00 PM
Thu, Aug 27
73 °FClear.13 mph83%29.89 "Hg10 mi
10:00 PM73 °FPassing clouds.14 mph89%29.89 "HgN/A
9:00 PM75 °FPassing clouds.12 mph83%29.86 "HgN/A
8:00 PM75 °FPassing clouds.13 mph83%29.86 "HgN/A
7:00 PM77 °FPassing clouds.14 mph79%29.83 "HgN/A
6:00 PM79 °FScattered clouds.14 mph74%29.80 "HgN/A
5:00 PM81 °FBroken clouds.14 mph70%29.80 "HgN/A
4:00 PM81 °FPartly sunny.8 mph74%29.80 "HgN/A
3:00 PM82 °FMostly cloudy.7 mph66%29.80 "HgN/A
2:00 PM82 °FPartly sunny.9 mph66%29.83 "HgN/A
1:00 PM82 °FPartly sunny.7 mph66%29.86 "HgN/A
12:00 PM82 °FPartly sunny.10 mph66%29.89 "HgN/A
11:00 AM81 °FWarm.8 mph70%29.89 "HgN/A
10:00 AM82 °FPartly sunny.9 mph66%29.89 "HgN/A
9:00 AM79 °FPartly sunny.9 mph70%29.92 "HgN/A
8:00 AM75 °FPartly sunny.8 mph78%29.89 "HgN/A
7:00 AM73 °FPartly sunny.6 mph83%29.86 "HgN/A
6:00 AM73 °FPassing clouds.2 mph83%29.86 "HgN/A
5:00 AM73 °FPassing clouds.7 mph83%29.86 "HgN/A
4:00 AM36 °FPassing clouds.9 mph100%29.86 "HgN/A
Weather by CustomWeather, © 2015

See weather overviewHow to use our weather pages